Time,TemperatureF,DewpointF,PressureIn,WindDirection,WindDirectionDegrees,WindSpeedMPH,WindSpeedGustMPH,Humidity,HourlyPrecipIn,Conditions,Clouds,dailyrainin,SoftwareType,DateUTC
2013-04-23 00:02:00,33.0,32.0,30.09,East,81,0.0,2.0,97,0.01,,,0.52,,2013-04-23 05:02:00,
2013-04-23 00:12:00,33.0,32.0,30.09,East,81,0.0,2.0,97,0.01,,,0.52,,2013-04-23 05:12:00,
2013-04-23 00:22:00,33.0,32.0,30.09,ENE,76,0.0,4.0,97,0.01,,,0.52,,2013-04-23 05:22:00,
2013-04-23 00:32:00,33.0,32.0,30.09,NNW,345,0.0,3.0,97,0.00,,,0.52,,2013-04-23 05:32:00,
2013-04-23 00:42:00,33.0,32.0,30.09,NNW,345,0.0,3.0,97,0.00,,,0.52,,2013-04-23 05:42:00,
2013-04-23 00:52:00,33.0,32.0,30.07,East,91,0.0,6.0,97,0.00,,,0.52,,2013-04-23 05:52:00,
2013-04-23 01:02:00,32.0,31.0,30.07,East,80,0.0,2.0,97,0.00,,,0.52,,2013-04-23 06:02:00,
2013-04-23 01:12:00,32.0,31.0,30.07,East,80,0.0,2.0,97,0.00,,,0.52,,2013-04-23 06:12:00,
2013-04-23 01:21:00,32.0,31.0,30.06,ESE,108,1.0,4.0,97,0.01,,,0.53,,2013-04-23 06:21:00,
2013-04-23 01:33:00,32.0,31.0,30.04,NNE,12,0.0,3.0,97,0.01,,,0.53,,2013-04-23 06:33:00,
2013-04-23 01:42:00,32.0,31.0,30.04,NNE,12,0.0,3.0,97,0.01,,,0.53,,2013-04-23 06:42:00,
2013-04-23 01:52:00,32.0,31.0,30.03,East,88,0.0,4.0,97,0.01,,,0.45,,2013-04-23 06:52:00,
2013-04-23 02:02:00,32.0,31.0,30.03,SE,128,0.0,2.0,97,0.01,,,0.45,,2013-04-23 07:02:00,
2013-04-23 02:11:00,32.0,31.0,30.03,SE,128,0.0,2.0,97,0.01,,,0.45,,2013-04-23 07:11:00,
2013-04-23 02:21:00,32.0,31.0,30.03,East,94,0.0,2.0,97,0.00,,,0.45,,2013-04-23 07:21:00,
2013-04-23 02:32:00,32.0,32.0,30.01,ESE,106,0.0,4.0,98,0.01,,,0.46,,2013-04-23 07:32:00,
2013-04-23 02:42:00,32.0,32.0,30.01,ESE,106,0.0,4.0,98,0.01,,,0.46,,2013-04-23 07:42:00,
2013-04-23 02:52:00,32.0,32.0,30.00,East,93,0.0,2.0,98,0.01,,,0.39,,2013-04-23 07:52:00,
2013-04-23 03:02:00,32.0,31.0,29.98,ESE,113,0.0,4.0,97,0.01,,,0.39,,2013-04-23 08:02:00,
2013-04-23 03:11:00,32.0,31.0,29.98,ESE,113,0.0,4.0,97,0.01,,,0.39,,2013-04-23 08:11:00,
2013-04-23 03:21:00,32.0,31.0,29.98,NNE,29,0.0,4.0,97,0.01,,,0.39,,2013-04-23 08:21:00,
2013-04-23 03:32:00,32.0,32.0,29.96,ESE,102,1.0,5.0,98,0.00,,,0.39,,2013-04-23 08:32:00,
2013-04-23 03:42:00,32.0,32.0,29.96,ESE,102,1.0,5.0,98,0.00,,,0.39,,2013-04-23 08:42:00,
2013-04-23 03:52:00,32.0,32.0,29.95,East,100,1.0,6.0,98,0.00,,,0.38,,2013-04-23 08:52:00,
2013-04-23 04:01:00,32.0,32.0,29.93,ENE,76,1.0,4.0,98,0.00,,,0.38,,2013-04-23 09:01:00,
2013-04-23 04:11:00,32.0,32.0,29.93,ENE,76,1.0,4.0,98,0.00,,,0.38,,2013-04-23 09:11:00,
2013-04-23 04:21:00,32.0,32.0,29.93,NE,50,0.0,4.0,98,0.00,,,0.38,,2013-04-23 09:21:00,
2013-04-23 04:33:00,32.0,32.0,29.93,ESE,102,0.0,2.0,98,0.00,,,0.38,,2013-04-23 09:33:00,
2013-04-23 04:43:00,32.0,32.0,29.93,ESE,102,0.0,2.0,98,0.00,,,0.38,,2013-04-23 09:43:00,
2013-04-23 04:52:00,32.0,32.0,29.92,East,101,0.0,3.0,98,0.01,,,0.39,,2013-04-23 09:52:00,
2013-04-23 05:02:00,32.0,32.0,29.91,ENE,65,0.0,2.0,98,0.03,,,0.41,,2013-04-23 10:02:00,
2013-04-23 05:13:00,32.0,32.0,29.91,ENE,65,0.0,2.0,98,0.03,,,0.41,,2013-04-23 10:13:00,
2013-04-23 05:22:00,32.0,32.0,29.89,ENE,75,0.0,1.0,98,0.04,,,0.42,,2013-04-23 10:22:00,
2013-04-23 05:33:00,32.0,32.0,29.88,NE,34,0.0,2.0,98,0.05,,,0.43,,2013-04-23 10:33:00,
2013-04-23 05:42:00,32.0,32.0,29.88,NE,34,0.0,2.0,98,0.05,,,0.43,,2013-04-23 10:42:00,
2013-04-23 05:52:00,32.0,32.0,29.89,WSW,240,0.0,0.0,98,0.06,,,0.44,,2013-04-23 10:52:00,
2013-04-23 06:03:00,32.0,32.0,29.88,ENE,77,0.0,0.0,98,0.07,,,0.47,,2013-04-23 11:03:00,
2013-04-23 06:12:00,32.0,32.0,29.88,ENE,77,0.0,0.0,98,0.07,,,0.47,,2013-04-23 11:12:00,
2013-04-23 06:21:00,32.0,32.0,29.88,East,100,0.0,1.0,98,0.08,,,0.49,,2013-04-23 11:21:00,
2013-04-23 06:32:00,32.0,32.0,29.88,ENE,65,0.0,1.0,98,0.08,,,0.50,,2013-04-23 11:32:00,
2013-04-23 06:42:00,32.0,32.0,29.88,ENE,65,0.0,1.0,98,0.08,,,0.50,,2013-04-23 11:42:00,
2013-04-23 06:52:00,32.0,32.0,29.88,NNW,332,0.0,1.0,98,0.07,,,0.51,,2013-04-23 11:52:00,
2013-04-23 07:02:00,32.0,32.0,29.88,WNW,300,0.0,1.0,98,0.04,,,0.51,,2013-04-23 12:02:00,
2013-04-23 07:12:00,32.0,32.0,29.88,WNW,300,0.0,1.0,98,0.04,,,0.51,,2013-04-23 12:12:00,
2013-04-23 07:22:00,32.0,32.0,29.89,WSW,241,0.0,1.0,98,0.03,,,0.52,,2013-04-23 12:22:00,
2013-04-23 07:32:00,32.0,32.0,29.89,WSW,248,0.0,0.0,98,0.02,,,0.52,,2013-04-23 12:32:00,
2013-04-23 07:42:00,32.0,32.0,29.89,WSW,248,0.0,0.0,98,0.02,,,0.52,,2013-04-23 12:42:00,
2013-04-23 07:51:00,32.0,32.0,29.89,WSW,250,0.0,1.0,98,0.01,,,0.52,,2013-04-23 12:51:00,
2013-04-23 08:01:00,32.0,32.0,29.89,WNW,284,0.0,0.0,98,0.01,,,0.52,,2013-04-23 13:01:00,
2013-04-23 08:11:00,32.0,32.0,29.89,WNW,284,0.0,0.0,98,0.01,,,0.52,,2013-04-23 13:11:00,
2013-04-23 08:21:00,33.0,32.0,29.88,NNW,338,0.0,1.0,98,0.00,,,0.52,,2013-04-23 13:21:00,
2013-04-23 08:32:00,33.0,32.0,29.89,ENE,58,0.0,3.0,97,0.00,,,0.52,,2013-04-23 13:32:00,
2013-04-23 08:42:00,33.0,32.0,29.89,ENE,58,0.0,3.0,97,0.00,,,0.52,,2013-04-23 13:42:00,
2013-04-23 08:52:00,32.0,31.0,29.89,South,187,0.0,4.0,96,0.00,,,0.52,,2013-04-23 13:52:00,
2013-04-23 09:02:00,32.0,31.0,29.90,South,186,0.0,1.0,96,0.00,,,0.52,,2013-04-23 14:02:00,
2013-04-23 09:11:00,32.0,31.0,29.90,South,186,0.0,1.0,96,0.00,,,0.52,,2013-04-23 14:11:00,
2013-04-23 09:22:00,32.0,31.0,29.91,SW,215,0.0,1.0,96,0.00,,,0.52,,2013-04-23 14:22:00,
2013-04-23 09:32:00,32.0,31.0,29.90,NNW,329,0.0,4.0,95,0.00,,,0.52,,2013-04-23 14:32:00,
2013-04-23 09:42:00,32.0,31.0,29.90,NNW,329,0.0,4.0,95,0.00,,,0.52,,2013-04-23 14:42:00,
2013-04-23 09:52:00,33.0,32.0,29.89,WSW,250,0.0,3.0,95,0.00,,,0.52,,2013-04-23 14:52:00,
2013-04-23 10:01:00,33.0,32.0,29.89,WSW,250,0.0,3.0,95,0.00,,,0.52,,2013-04-23 15:01:00,
2013-04-23 10:12:00,33.0,32.0,29.91,NW,319,0.0,2.0,95,0.00,,,0.52,,2013-04-23 15:12:00,
2013-04-23 10:21:00,34.0,32.0,29.91,NW,319,1.0,4.0,93,0.00,,,0.52,,2013-04-23 15:21:00,
2013-04-23 10:32:00,35.0,33.0,29.91,West,266,0.0,5.0,93,0.00,,,0.52,,2013-04-23 15:32:00,
2013-04-23 10:42:00,35.0,33.0,29.91,West,266,0.0,5.0,93,0.00,,,0.52,,2013-04-23 15:42:00,
2013-04-23 10:53:00,35.0,33.0,29.91,North,356,1.0,6.0,91,0.00,,,0.52,,2013-04-23 15:53:00,
2013-04-23 11:03:00,36.0,33.0,29.92,SE,132,0.0,5.0,89,0.00,,,0.52,,2013-04-23 16:03:00,
2013-04-23 11:12:00,36.0,33.0,29.92,SE,132,0.0,5.0,89,0.00,,,0.52,,2013-04-23 16:12:00,
2013-04-23 11:23:00,36.0,33.0,29.92,West,276,1.0,4.0,87,0.00,,,0.52,,2013-04-23 16:23:00,
2013-04-23 11:34:00,37.0,33.0,29.93,WNW,289,0.0,5.0,86,0.00,,,0.52,,2013-04-23 16:34:00,
2013-04-23 11:43:00,37.0,33.0,29.93,WNW,289,0.0,5.0,86,0.00,,,0.52,,2013-04-23 16:43:00,
2013-04-23 11:52:00,37.0,32.0,29.93,WSW,250,1.0,5.0,83,0.00,,,0.52,,2013-04-23 16:52:00,
2013-04-23 12:02:00,37.0,32.0,29.94,NNW,339,1.0,7.0,83,0.00,,,0.52,,2013-04-23 17:02:00,
2013-04-23 12:11:00,37.0,32.0,29.94,NNW,339,1.0,7.0,83,0.00,,,0.52,,2013-04-23 17:11:00,
2013-04-23 12:22:00,37.0,32.0,29.95,WNW,298,1.0,7.0,81,0.00,,,0.52,,2013-04-23 17:22:00,
2013-04-23 12:32:00,38.0,32.0,29.94,West,274,1.0,6.0,80,0.00,,,0.52,,2013-04-23 17:32:00,
2013-04-23 12:42:00,38.0,32.0,29.94,West,274,1.0,6.0,80,0.00,,,0.52,,2013-04-23 17:42:00,
2013-04-23 12:53:00,38.0,32.0,29.94,NE,56,1.0,6.0,79,0.00,,,0.52,,2013-04-23 17:53:00,
2013-04-23 13:02:00,39.0,31.0,29.94,SW,229,1.0,6.0,74,0.00,,,0.52,,2013-04-23 18:02:00,
2013-04-23 13:12:00,39.0,31.0,29.94,SW,229,1.0,6.0,74,0.00,,,0.52,,2013-04-23 18:12:00,
2013-04-23 13:22:00,39.0,32.0,29.94,West,270,0.0,4.0,77,0.00,,,0.52,,2013-04-23 18:22:00,
2013-04-23 13:32:00,41.0,33.0,29.94,NE,52,1.0,5.0,74,0.00,,,0.52,,2013-04-23 18:32:00,
2013-04-23 13:42:00,41.0,33.0,29.94,NE,52,1.0,5.0,74,0.00,,,0.52,,2013-04-23 18:42:00,
2013-04-23 13:52:00,39.0,33.0,29.94,WSW,250,2.0,7.0,78,0.00,,,0.52,,2013-04-23 18:52:00,
2013-04-23 14:02:00,40.0,33.0,29.94,West,262,1.0,6.0,77,0.00,,,0.52,,2013-04-23 19:02:00,
2013-04-23 14:11:00,40.0,33.0,29.94,West,262,1.0,6.0,77,0.00,,,0.52,,2013-04-23 19:11:00,
2013-04-23 14:22:00,42.0,33.0,29.93,West,264,1.0,10.0,71,0.00,,,0.52,,2013-04-23 19:22:00,
2013-04-23 14:32:00,41.0,32.0,29.94,South,169,3.0,8.0,71,0.00,,,0.52,,2013-04-23 19:32:00,
2013-04-23 14:42:00,41.0,32.0,29.94,South,169,3.0,8.0,71,0.00,,,0.52,,2013-04-23 19:42:00,
2013-04-23 14:52:00,41.0,34.0,29.96,NNW,328,2.0,8.0,75,0.00,,,0.49,,2013-04-23 19:52:00,
2013-04-23 15:02:00,39.0,32.0,29.95,West,269,2.0,11.0,76,0.00,,,0.49,,2013-04-23 20:02:00,
2013-04-23 15:11:00,39.0,32.0,29.95,West,269,2.0,11.0,76,0.00,,,0.49,,2013-04-23 20:11:00,
2013-04-23 15:22:00,39.0,31.0,29.96,NW,322,1.0,8.0,74,0.00,,,0.49,,2013-04-23 20:22:00,
2013-04-23 15:32:00,38.0,30.0,29.95,WSW,239,2.0,11.0,72,0.00,,,0.49,,2013-04-23 20:32:00,
2013-04-23 15:42:00,38.0,30.0,29.95,WSW,239,2.0,11.0,72,0.00,,,0.49,,2013-04-23 20:42:00,
2013-04-23 15:52:00,38.0,30.0,29.96,SW,229,0.0,6.0,73,0.00,,,0.36,,2013-04-23 20:52:00,
2013-04-23 16:02:00,37.0,29.0,29.96,WNW,302,1.0,6.0,72,0.00,,,0.36,,2013-04-23 21:02:00,
2013-04-23 16:12:00,37.0,29.0,29.96,WNW,302,1.0,6.0,72,0.00,,,0.36,,2013-04-23 21:12:00,
2013-04-23 16:21:00,38.0,31.0,29.96,SSW,198,0.0,4.0,77,0.00,,,0.36,,2013-04-23 21:21:00,
2013-04-23 16:33:00,37.0,30.0,29.96,North,356,1.0,5.0,75,0.00,,,0.36,,2013-04-23 21:33:00,
2013-04-23 16:43:00,37.0,30.0,29.96,North,356,1.0,5.0,75,0.00,,,0.36,,2013-04-23 21:43:00,
2013-04-23 16:52:00,37.0,29.0,29.96,North,356,1.0,3.0,73,0.00,,,0.33,,2013-04-23 21:52:00,
2013-04-23 17:03:00,37.0,29.0,29.96,ENE,67,1.0,5.0,72,0.00,,,0.33,,2013-04-23 22:03:00,
2013-04-23 17:12:00,37.0,29.0,29.96,ENE,67,1.0,5.0,72,0.00,,,0.33,,2013-04-23 22:12:00,
2013-04-23 17:22:00,37.0,29.0,29.96,WSW,248,0.0,6.0,73,0.00,,,0.33,,2013-04-23 22:22:00,
2013-04-23 17:33:00,36.0,29.0,29.97,South,177,0.0,6.0,74,0.00,,,0.33,,2013-04-23 22:33:00,
2013-04-23 17:42:00,36.0,29.0,29.97,South,177,0.0,6.0,74,0.00,,,0.33,,2013-04-23 22:42:00,
2013-04-23 17:52:00,36.0,29.0,29.98,North,6,1.0,4.0,74,0.00,,,0.30,,2013-04-23 22:52:00,
2013-04-23 18:03:00,35.0,28.0,29.97,West,260,0.0,4.0,75,0.00,,,0.30,,2013-04-23 23:03:00,
2013-04-23 18:12:00,35.0,28.0,29.97,West,260,0.0,4.0,75,0.00,,,0.30,,2013-04-23 23:12:00,
2013-04-23 18:22:00,35.0,28.0,29.97,South,184,0.0,8.0,74,0.00,,,0.30,,2013-04-23 23:22:00,
2013-04-23 18:32:00,35.0,27.0,29.98,ENE,71,0.0,4.0,73,0.00,,,0.30,,2013-04-23 23:32:00,
2013-04-23 18:42:00,35.0,27.0,29.98,ENE,71,0.0,4.0,73,0.00,,,0.30,,2013-04-23 23:42:00,
2013-04-23 18:52:00,34.0,26.0,29.98,SSE,153,0.0,6.0,73,0.00,,,0.24,,2013-04-23 23:52:00,
2013-04-23 19:01:00,34.0,27.0,29.98,North,354,0.0,4.0,74,0.00,,,0.24,,2013-04-24 00:01:00,
2013-04-23 19:11:00,34.0,27.0,29.98,North,354,0.0,4.0,74,0.00,,,0.24,,2013-04-24 00:11:00,
2013-04-23 19:22:00,34.0,27.0,29.99,WSW,242,0.0,5.0,76,0.00,,,0.24,,2013-04-24 00:22:00,
2013-04-23 19:32:00,33.0,27.0,29.98,West,277,0.0,1.0,77,0.00,,,0.24,,2013-04-24 00:32:00,
2013-04-23 19:42:00,33.0,27.0,29.98,West,277,0.0,1.0,77,0.00,,,0.24,,2013-04-24 00:42:00,
2013-04-23 19:52:00,33.0,27.0,29.98,NNW,330,0.0,2.0,77,0.00,,,0.22,,2013-04-24 00:52:00,
2013-04-23 20:01:00,33.0,27.0,29.99,NNW,340,0.0,4.0,79,0.00,,,0.22,,2013-04-24 01:01:00,
2013-04-23 20:11:00,33.0,27.0,29.99,NNW,340,0.0,4.0,79,0.00,,,0.22,,2013-04-24 01:11:00,
2013-04-23 20:21:00,33.0,28.0,30.00,North,8,0.0,2.0,81,0.00,,,0.22,,2013-04-24 01:21:00,
2013-04-23 20:32:00,32.0,27.0,30.00,West,264,0.0,1.0,81,0.00,,,0.22,,2013-04-24 01:32:00,
2013-04-23 20:42:00,32.0,27.0,30.00,West,264,0.0,1.0,81,0.00,,,0.22,,2013-04-24 01:42:00,
2013-04-23 20:52:00,32.0,27.0,30.00,NW,326,0.0,1.0,82,0.00,,,0.21,,2013-04-24 01:52:00,
2013-04-23 21:02:00,31.0,27.0,30.01,NW,325,0.0,0.0,84,0.00,,,0.21,,2013-04-24 02:02:00,
2013-04-23 21:38:00,29.0,26.0,29.99,West,280,0.0,0.0,89,0.00,,,0.21,,2013-04-24 02:38:00,
2013-04-23 21:47:00,29.0,26.0,29.99,West,280,0.0,0.0,89,0.00,,,0.21,,2013-04-24 02:47:00,
2013-04-23 21:55:00,27.0,25.0,30.00,West,280,0.0,0.0,91,0.00,,,0.21,,2013-04-24 02:55:00,
2013-04-23 22:08:00,26.0,24.0,30.00,West,280,0.0,0.0,93,0.00,,,0.21,,2013-04-24 03:08:00,
2013-04-23 22:17:00,26.0,24.0,30.00,West,280,0.0,0.0,93,0.00,,,0.21,,2013-04-24 03:17:00,
2013-04-23 22:28:00,26.0,25.0,30.00,West,280,0.0,0.0,95,0.00,,,0.21,,2013-04-24 03:28:00,
2013-04-23 22:40:00,25.0,24.0,30.00,West,280,0.0,0.0,94,0.00,,,0.21,,2013-04-24 03:40:00,
2013-04-23 22:49:00,25.0,24.0,30.00,West,280,0.0,0.0,94,0.00,,,0.21,,2013-04-24 03:49:00,
2013-04-23 22:56:00,24.0,23.0,30.00,West,280,0.0,0.0,95,0.00,,,0.18,,2013-04-24 03:56:00,
2013-04-23 23:03:00,25.0,24.0,30.00,West,280,0.0,0.0,96,0.00,,,0.18,,2013-04-24 04:03:00,
2013-04-23 23:12:00,25.0,24.0,30.00,West,280,0.0,0.0,96,0.00,,,0.18,,2013-04-24 04:12:00,
2013-04-23 23:23:00,25.0,24.0,30.00,West,280,0.0,0.0,96,0.00,,,0.18,,2013-04-24 04:23:00,
2013-04-23 23:33:00,24.0,23.0,30.00,West,280,0.0,0.0,95,0.00,,,0.18,,2013-04-24 04:33:00,
2013-04-23 23:43:00,24.0,23.0,30.00,West,280,0.0,0.0,95,0.00,,,0.18,,2013-04-24 04:43:00,
2013-04-23 23:52:00,22.0,21.0,29.99,West,280,0.0,0.0,95,0.00,,,0.17,,2013-04-24 04:52:00,